Back to catalog

STARLINK-30585

AliveCommunicationsVLEO
NORAD 58063·PAYLOAD·🇺🇸 United States

Launched Oct 13, 2023 from Cape Canaveral Space Force Station

Loading…

Next Passes (next 24 hours)

TLE

FreshSource: CelesTrak SupGP

Epoch: Sep 14, 2026, 21:12 UTC

1 58063C 23158N   26257.88381944  .00043683  00000+0  15815-2 0  2570
2 58063  43.0008  38.6521 0001560 270.2913  99.6710 15.27571370    11

Track STARLINK-30585 in real time with AllMySat

Download on the App Store